Мелецк

Россия / Красноярский край     57°25′05″N   90°12′38″E
темп.,
°C
ветер,
м/с
пор.,
м/с
влажн.,
%
обл.,
%
осадки,
мм/ч
давл.,
гПа
погр.,
м
10 мая, пн
пн1001:00+4ссз26955 0.0 1021163
04:00+1ссз259823 0.0 102289
07:00+4с24880 0.0 1023175
10:00+10с23633 0.0 1024745
13:00+14с224533 0.0 10231603
16:00+15ссв2341100 0.0 10222101
19:00+13ссз125615 0.0 102242
22:00+8ссв11707 0.0 102210
11 мая, вт
вт1101:00+6всв11795 0.0 102213
04:00+5всв12825 0.0 102110
07:00+8св13725 0.0 1021117
10:00+14св244918 0.0 1020864
13:00+16всв3537100 0.0 10192287
16:00+17св443893 0.0 10182235
19:00+15св364692 0.0 1019532
22:00+9ссв287517 0.0 1020138
12 мая, ср
ср1201:00+7всв39923 0.0 1020268
04:00+5всв27975 0.0 1021212
07:00+7в36842 0.0 1021309
10:00+11всв34495 0.0 10211303
13:00+14всв23375 0.0 10201809
16:00+15св22325 0.0 10192040
19:00+14всв22395 0.0 1019962
22:00+8юв23615 0.0 101946
13 мая, чт
чт1301:00+6ююв256561 0.0 102084
04:00+7ююв276290 0.0 1019168
07:00+8ю2660100 0.0 1019215
10:00+13ю244282 0.0 1019721
13:00+17юз243589 0.0 10172423
16:00+17зюз463695 0.0 10152466
19:00+16ююз254470 0.0 1013305
22:00+10ююз2366100 0.0 101344
14 мая, пт
пт1401:00+8ссз2481100 0.1 101283
04:00+8з2795100 0.6 1010309
07:00+8з3786100 1.2 1009561
10:00+8з4886100 1.2 10081115
13:00+6з4992100 3.1 10081060
16:00+5сз612738 1.1 10101420
19:00+5сз5126536 1.8 10131765
22:00+3зсз4116652 0.0 1016547